Notices

What's New in latest Release from April 7th, 2021:

- Updated Glossary, including Speed of Maximum Gust, and Total Hourly Precipitation

- Updated national and regional climate services offices contacts and prices information

- Addition of station inventory lists for 1981-2010, 1971-2000, and 1961-1990 Normals.

If you haven't already, please take our survey and provide feedback about our website: https://eccc.sondage-survey.ca/f/LanguageSelection.aspx?s=442ca660-fcf1-47c0-95a9-59707d6fd709

Hourly Data Report for April 03, 2017

KUGAARUK CLIMATE
NUNAVUT

68°32'15.060" N
89°47'47.020" W
15.80 m
2303094
71407
NBB

Download Data

Hourly Data (April 2017)
Hourly Data Report for April 3, 2017
TIME
LST
Temp Definition
°C
Dew Point Definition
°C
Rel Hum Definition
%
Precip. Amount Definition
mm

Wind Dir Definition
10's deg

Wind Spd Definition
km/h
Visibility Definition
km
Stn Press Definition
kPa
Hmdx Definition


Wind Chill Definition


Weather Definition


00:00 -10.8 -13.5 81 0.0 19 44   100.58   -22 LegendNANA
01:00 -10.7 -13.4 80 0.0 19 35   100.54   -21 LegendNANA
02:00 -10.7 -13.0 83 0.0 20 35   100.53   -21 LegendNANA
03:00 -10.3 -12.6 84 0.0 19 33   100.54   -20 LegendNANA
04:00 -10.0 -12.1 85 0.0 20 33   100.53   -20 LegendNANA
05:00 -9.9 -12.0 85 0.0 21 34   100.53   -20 LegendNANA
06:00 -9.6 -11.9 83 0.0 21 36   100.53   -20 LegendNANA
07:00 -9.5 -11.8 84 0.0 21 30   100.57   -19 LegendNANA
08:00 -9.2 -11.4 84 0.0 22 27   100.62   -18 LegendNANA
09:00 -10.7 -13.5 80 0.0 25 28   100.67   -20 LegendNANA
10:00 -11.1 -14.3 77 0.0 24 31   100.74   -21 LegendNANA
11:00 -11.6 -15.3 74 0.0 25 31   100.79   -22 LegendNANA
12:00 -12.4 -15.9 75 0.0 24 30   100.88   -23 LegendNANA
13:00 -12.8 -16.4 74 0.0 24 31   100.96   -23 LegendNANA
14:00 -13.3 -17.1 73 0.0 25 33   101.06   -24 LegendNANA
15:00 -14.0 -18.2 71 0.0 25 19   101.12   -23 LegendNANA
16:00 -14.6 -18.5 72 0.0 25 14   101.15   -22 LegendNANA
17:00 -15.6 -19.2 74 0.0 28 13   101.21   -23 LegendNANA
18:00 -16.9 -19.8 78 0.2 24 12   101.28   -24 LegendNANA
19:00 -18.1 -21.1 78 0.0 23 13   101.32   -26 LegendNANA
20:00 -18.2 -20.9 79 0.0 26 10   101.35   -25 LegendNANA
21:00 -17.2 -19.6 82 0.0 27 8   101.32   -23 LegendNANA
22:00 -15.6 -18.2 80 0.0 27 17   101.31   -24 LegendNANA
23:00 -15.6 -18.1 81 0.0 25 17   101.31   -24 LegendNANA

Notes on Data Quality.

Legend

  • E = Estimated
  • M = Missing
  • NA = Not Available*
  • [empty] = Indicates an unobserved value
Date modified: